• In India
  • List of Countries
  • For 7 days
  • Water Temperature
  • Satellite Maps
  • Weather Map
  • Weather Widgets
  • user-avatar
    Login

    Hourly Weather Salzburg

    Today, 26 September, Tuesday

    Time Temperature Precipitation Wind Pressure Humidity
    00:00 +3°C° 0 mm 1 mps 628 mmHg 94%
    01:00 +3°C° 0 mm 1 mps 628 mmHg 94%
    02:00 +2°C° 0 mm 1 mps 627 mmHg 94%
    03:00 +2°C° 0 mm 1 mps 627 mmHg 94%
    04:00 +2°C° 0 mm 1 mps 627 mmHg 94%
    05:00 +2°C° 0 mm 1 mps 627 mmHg 93%
    06:00 +2°C° 0 mm 1 mps 628 mmHg 92%
    07:00 +3°C° 0 mm 1 mps 628 mmHg 87%
    08:00 +6°C° 0 mm 1 mps 629 mmHg 79%
    09:00 +8°C° 0 mm 1 mps 630 mmHg 71%
    10:00 +11°C° 0 mm 1 mps 631 mmHg 63%
    11:00 +11°C° 0 mm 1 mps 631 mmHg 62%
    12:00 +12°C° 0 mm 1 mps 631 mmHg 62%
    13:00 +12°C° 0 mm 1 mps 631 mmHg 62%
    14:00 +11°C° 0.1 mm 1 mps 631 mmHg 66%
    15:00 +11°C° 0.1 mm 1 mps 631 mmHg 70%
    16:00 +10°C° 0.1 mm 2 mps 630 mmHg 74%
    17:00 +9°C° 0.1 mm 1 mps 630 mmHg 81%
    18:00 +7°C° 0.1 mm 1 mps 630 mmHg 87%
    19:00 +5°C° 0.1 mm 1 mps 629 mmHg 93%
    20:00 +5°C° 0 mm 1 mps 629 mmHg 93%
    21:00 +4°C° 0 mm 1 mps 629 mmHg 93%
    22:00 +4°C° 0 mm 1 mps 629 mmHg 93%
    23:00 +3°C° 0 mm 1 mps 629 mmHg 92%

    Tomorrow, 27 September, Wednesday

    Time Temperature Precipitation Wind Pressure Humidity
    00:00 +3°C° 0 mm 1 mps 629 mmHg 92%
    01:00 +3°C° 0 mm 1 mps 629 mmHg 91%
    02:00 +3°C° 0 mm 1 mps 629 mmHg 91%
    03:00 +3°C° 0 mm 1 mps 629 mmHg 90%
    04:00 +2°C° 0 mm 1 mps 629 mmHg 90%
    05:00 +3°C° 0 mm 1 mps 629 mmHg 89%
    06:00 +3°C° 0 mm 1 mps 630 mmHg 88%
    07:00 +4°C° 0 mm 1 mps 630 mmHg 87%
    08:00 +6°C° 0 mm 1 mps 631 mmHg 79%
    09:00 +9°C° 0 mm 1 mps 632 mmHg 71%
    10:00 +12°C° 0 mm 1 mps 633 mmHg 63%
    11:00 +13°C° 0 mm 1 mps 633 mmHg 61%
    12:00 +13°C° 0 mm 1 mps 633 mmHg 58%
    13:00 +14°C° 0 mm 1 mps 633 mmHg 56%
    14:00 +14°C° 0.1 mm 1 mps 633 mmHg 61%
    15:00 +13°C° 0.1 mm 1 mps 633 mmHg 66%
    16:00 +13°C° 0.1 mm 1 mps 632 mmHg 72%
    17:00 +10°C° 0.1 mm 1 mps 632 mmHg 79%
    18:00 +8°C° 0.1 mm 1 mps 631 mmHg 86%
    19:00 +6°C° 0.1 mm 1 mps 631 mmHg 93%
    20:00 +6°C° 0 mm 1 mps 631 mmHg 93%
    21:00 +6°C° 0 mm 1 mps 631 mmHg 93%
    22:00 +5°C° 0 mm 1 mps 631 mmHg 93%
    23:00 +5°C° 0 mm 1 mps 631 mmHg 92%

    Day after tomorrow, 28 September, Thursday

    Time Temperature Precipitation Wind Pressure Humidity
    00:00 +5°C° 0 mm 1 mps 631 mmHg 92%
    01:00 +4°C° 0 mm 1 mps 631 mmHg 92%
    02:00 +4°C° 0 mm 1 mps 631 mmHg 91%
    03:00 +4°C° 0 mm 1 mps 631 mmHg 91%
    04:00 +4°C° 0 mm 1 mps 631 mmHg 90%
    05:00 +4°C° 0 mm 1 mps 631 mmHg 88%
    06:00 +5°C° 0 mm 1 mps 632 mmHg 86%
    07:00 +5°C° 0 mm 1 mps 632 mmHg 84%
    08:00 +8°C° 0 mm 1 mps 633 mmHg 76%
    09:00 +11°C° 0 mm 1 mps 634 mmHg 67%
    10:00 +12°C° 0 mm 0 mps 635 mmHg 58%
    11:00 +14°C° 0 mm 1 mps 635 mmHg 56%
    12:00 +15°C° 0 mm 1 mps 635 mmHg 54%
    13:00 +15°C° 0 mm 1 mps 635 mmHg 52%
    14:00 +15°C° 0.1 mm 1 mps 635 mmHg 59%
    15:00 +14°C° 0.1 mm 1 mps 634 mmHg 66%
    16:00 +13°C° 0.1 mm 1 mps 634 mmHg 73%
    17:00 +11°C° 0.1 mm 1 mps 634 mmHg 79%
    18:00 +9°C° 0.1 mm 1 mps 633 mmHg 86%
    19:00 +7°C° 0.1 mm 1 mps 633 mmHg 92%
    20:00 +7°C° 0 mm 1 mps 633 mmHg 92%
    21:00 +6°C° 0 mm 1 mps 633 mmHg 92%
    22:00 +6°C° 0 mm 1 mps 633 mmHg 93%
    23:00 +6°C° 0 mm 1 mps 632 mmHg 92%

    29 September, Friday

    Time Temperature Precipitation Wind Pressure Humidity
    00:00 +5°C° 0 mm 1 mps 632 mmHg 91%
    01:00 +5°C° 0 mm 1 mps 632 mmHg 91%
    02:00 +5°C° 0 mm 1 mps 631 mmHg 89%
    03:00 +5°C° 0 mm 1 mps 631 mmHg 87%
    04:00 +5°C° 0 mm 1 mps 631 mmHg 85%
    05:00 +5°C° 0 mm 1 mps 631 mmHg 83%
    06:00 +6°C° 0 mm 1 mps 632 mmHg 81%
    07:00 +6°C° 0 mm 1 mps 632 mmHg 79%
    08:00 +8°C° 0 mm 1 mps 633 mmHg 73%
    09:00 +11°C° 0 mm 1 mps 633 mmHg 67%
    10:00 +12°C° 0 mm 0 mps 634 mmHg 61%
    11:00 +13°C° 0.1 mm 1 mps 634 mmHg 60%
    12:00 +14°C° 0.1 mm 1 mps 634 mmHg 60%
    13:00 +14°C° 0.1 mm 1 mps 634 mmHg 60%
    14:00 +14°C° 0.7 mm 1 mps 633 mmHg 66%
    15:00 +13°C° 0.7 mm 1 mps 633 mmHg 72%
    16:00 +12°C° 0.7 mm 1 mps 632 mmHg 78%
    17:00 +10°C° 0.4 mm 1 mps 632 mmHg 83%
    18:00 +9°C° 0.4 mm 1 mps 631 mmHg 88%
    19:00 +7°C° 0.4 mm 1 mps 631 mmHg 93%
    20:00 +6°C° 0 mm 1 mps 631 mmHg 93%
    21:00 +6°C° 0 mm 1 mps 631 mmHg 93%
    22:00 +5°C° 0 mm 1 mps 631 mmHg 93%
    23:00 +5°C° 0 mm 1 mps 630 mmHg 93%

    30 September, Saturday

    Time Temperature Precipitation Wind Pressure Humidity
    00:00 +5°C° 0 mm 1 mps 630 mmHg 92%
    01:00 +4°C° 0 mm 1 mps 630 mmHg 92%
    02:00 +4°C° 0 mm 1 mps 630 mmHg 91%
    03:00 +4°C° 0 mm 1 mps 629 mmHg 90%
    04:00 +4°C° 0 mm 1 mps 629 mmHg 89%
    05:00 +4°C° 0 mm 1 mps 629 mmHg 88%
    06:00 +4°C° 0 mm 1 mps 629 mmHg 88%
    07:00 +4°C° 0 mm 1 mps 630 mmHg 87%
    08:00 +7°C° 0 mm 1 mps 630 mmHg 78%
    09:00 +10°C° 0 mm 1 mps 631 mmHg 70%
    10:00 +12°C° 0 mm 0 mps 632 mmHg 61%
    11:00 +13°C° 0 mm 1 mps 632 mmHg 58%
    12:00 +14°C° 0 mm 1 mps 632 mmHg 55%
    13:00 +15°C° 0 mm 1 mps 632 mmHg 53%
    14:00 +14°C° 0 mm 1 mps 631 mmHg 57%
    15:00 +13°C° 0 mm 1 mps 631 mmHg 62%
    16:00 +13°C° 0 mm 1 mps 630 mmHg 66%
    17:00 +11°C° 0 mm 1 mps 630 mmHg 75%
    18:00 +8°C° 0 mm 1 mps 629 mmHg 83%
    19:00 +6°C° 0 mm 1 mps 628 mmHg 92%
    20:00 +6°C° 0 mm 1 mps 628 mmHg 92%
    21:00 +5°C° 0 mm 1 mps 628 mmHg 91%
    22:00 +5°C° 0 mm 1 mps 628 mmHg 91%
    23:00 +5°C° 0 mm 1 mps 628 mmHg 91%

    1 October, Sunday

    Time Temperature Precipitation Wind Pressure Humidity
    00:00 +5°C° 0 mm 1 mps 628 mmHg 91%
    01:00 +5°C° 0 mm 1 mps 628 mmHg 91%
    02:00 +4°C° 0 mm 1 mps 628 mmHg 91%
    03:00 +4°C° 0 mm 1 mps 628 mmHg 91%
    04:00 +4°C° 0 mm 1 mps 628 mmHg 91%
    05:00 +4°C° 0 mm 1 mps 628 mmHg 90%
    06:00 +4°C° 0 mm 1 mps 628 mmHg 89%
    07:00 +4°C° 0 mm 1 mps 628 mmHg 88%
    08:00 +7°C° 0 mm 1 mps 629 mmHg 77%
    09:00 +10°C° 0 mm 1 mps 630 mmHg 67%
    10:00 +12°C° 0 mm 0 mps 631 mmHg 56%
    11:00 +13°C° 0 mm 1 mps 631 mmHg 56%
    12:00 +14°C° 0 mm 1 mps 631 mmHg 56%
    13:00 +14°C° 0 mm 1 mps 631 mmHg 56%
    14:00 +14°C° 0.1 mm 1 mps 631 mmHg 62%
    15:00 +13°C° 0.1 mm 1 mps 631 mmHg 68%
    16:00 +12°C° 0.1 mm 1 mps 630 mmHg 74%
    17:00 +10°C° 0.1 mm 1 mps 630 mmHg 80%
    18:00 +8°C° 0.1 mm 1 mps 630 mmHg 87%
    19:00 +7°C° 0.1 mm 1 mps 629 mmHg 94%
    20:00 +6°C° 0 mm 1 mps 629 mmHg 94%
    21:00 +6°C° 0 mm 1 mps 630 mmHg 94%
    22:00 +6°C° 0 mm 1 mps 630 mmHg 95%
    23:00 +6°C° 0 mm 1 mps 630 mmHg 95%
    Show more